Home   Weather   Fairfield Point   Past weeks
Flag for USA

Past Weather in Fairfield Point, Georgia, USA — Yesterday and Last 2 Weeks

Now
93 °F

Hot.


Feels Like: 107 °F
Forecast: 91 / 78 °F
Wind: 2 mph from South

Location: Bellair-Meadowbrook Terrace - MADIS Station

Current Time: Jul 13, 2020 at 8:21:50 pm

Latest Report: Jul 13, 2020 at 7:18 pm


Visibility: N/A

Pressure: 29.85 "Hg

Humidity: 59%

Dew Point: 77 °F

Location of Fairfield PointLocation

Past Weather in Fairfield Point — Graph

°F

Fairfield Point Temperature Yesterday

Maximum temperature yesterday: 100 °F (at 4:03 pm)
Minimum temperature yesterday: 74 °F (at 6:18 am)
Average temperature yesterday: 86 °F

High & Low Weather Summary for the Past Weeks

 TemperatureHumidityPressure
High100 °F (Jun 30, 2:48 pm)96% (Jul 4, 7:33 am)30.02 "Hg (Jul 4, 7:33 am)
Low73 °F (Jul 1, 5:33 am)39% (Jul 12, 5:03 pm)29.77 "Hg (Jul 11, 5:18 pm)
Average83 °F81%29.89 "Hg
* Reported Jun 28 7:03 pm — Jul 13 7:03 pm, Fairfield Point. Weather by CustomWeather, © 2020

Note: Actual official high and low records may vary slightly from our data, if they occured in-between our weather recording intervals... More about our weather records

Fairfield Point Weather History for the Previous 24 Hours

Scroll right to see more
 ConditionsComfort  
Time TempWeatherWind HumidityBarometerVisibility
7:03 pm
Mon, Jul 13
94 °FHot.5 mph58%29.85 "HgN/A
6:48 pm94 °FHot.2 mph57%29.84 "HgN/A
6:18 pm95 °FHot.4 mph57%29.84 "HgN/A
5:48 pm96 °FHot.3 mph56%29.83 "HgN/A
5:18 pm97 °FExtremely hot.4 mph51%29.83 "HgN/A
5:03 pm97 °FExtremely hot.5 mph50%N/AN/A
4:18 pm98 °FExtremely hot.5 mph48%N/AN/A
4:03 pm98 °FExtremely hot.4 mph48%N/AN/A
3:33 pm98 °FExtremely hot.3 mph52%N/AN/A
3:18 pm97 °FExtremely hot.2 mph56%N/AN/A
2:33 pm97 °FExtremely hot.4 mph53%29.88 "HgN/A
2:03 pm97 °FExtremely hot.3 mph52%29.88 "HgN/A
1:33 pm97 °FExtremely hot.4 mph52%N/AN/A
1:18 pm96 °FHot.2 mph54%29.89 "HgN/A
1:03 pm93 °FHot.1 mph56%N/AN/A
12:33 pm93 °FHot.2 mph55%29.89 "HgN/A
12:18 pm92 °FHot.3 mph58%29.89 "HgN/A
12:03 pm91 °FHot.2 mph62%29.89 "HgN/A
11:33 am90 °FHot.1 mph62%N/AN/A
11:18 am89 °FWarm.No wind64%29.90 "HgN/A
11:03 am87 °FWarm.1 mph70%29.90 "HgN/A
10:33 am86 °FWarm.3 mph74%29.90 "HgN/A
10:18 am84 °FWarm.2 mph76%29.89 "HgN/A
10:03 am85 °FWarm.3 mph76%29.89 "HgN/A
9:33 am83 °FWarm.1 mph79%29.89 "HgN/A
8:48 am81 °FWarm.3 mph83%29.88 "HgN/A
8:33 am81 °FWarm.2 mph85%29.88 "HgN/A
8:18 am79 °FMild.3 mph87%29.88 "HgN/A
8:03 am78 °FMild.2 mph88%29.88 "HgN/A
7:33 am77 °FMild.3 mph90%29.87 "HgN/A
7:18 am76 °FMild.2 mph90%29.87 "HgN/A
7:03 am76 °FMild.2 mph90%29.86 "HgN/A
6:33 am76 °FMild.No wind89%29.86 "HgN/A
6:18 am76 °FMild.No wind89%29.84 "HgN/A
6:03 am76 °FMild.1 mph89%29.84 "HgN/A
5:33 am76 °FMild.1 mph88%29.83 "HgN/A
5:03 am76 °FMild.No wind87%29.83 "HgN/A
4:48 am76 °FMild.1 mph87%29.83 "HgN/A
4:03 am77 °FMild.2 mph85%29.83 "HgN/A
3:48 am77 °FMild.1 mph85%29.82 "HgN/A
3:18 am78 °FMild.1 mph84%29.82 "HgN/A
2:33 am79 °FMild.2 mph82%29.82 "HgN/A
2:18 am79 °FMild.2 mph81%29.83 "HgN/A
2:03 am79 °FMild.1 mph81%29.82 "HgN/A
1:48 am80 °FMild.1 mph80%29.83 "HgN/A
1:18 am80 °FMild.1 mph79%29.83 "HgN/A
12:18 am82 °FWarm.2 mph76%29.83 "HgN/A
12:03 am82 °FWarm.2 mph75%29.82 "HgN/A
11:33 pm
Sun, Jul 12
83 °FWarm.3 mph73%29.83 "HgN/A
11:18 pm83 °FWarm.2 mph74%29.83 "HgN/A
10:48 pm83 °FWarm.No wind77%29.83 "HgN/A
10:18 pm83 °FWarm.No wind79%29.82 "HgN/A
9:33 pm85 °FWarm.No wind75%29.81 "HgN/A
9:18 pm85 °FWarm.No wind73%29.81 "HgN/A
8:33 pm87 °FWarm.No wind67%29.79 "HgN/A
8:03 pm89 °FWarm.No wind60%29.78 "HgN/A
Weather by CustomWeather, © 2020

See weather overview